Location: Linz
(48.3300°N, 14.3000°E)
Time: 12:20:46
(UTC+01:00)

Vanguard 2 - All Passes

Search period start: 21 February 2018 00:00
Search period end: 03 March 2018 00:00
Orbit: 553 x 2939 km, 32.9° (Epoch: 20 February)

Date Brightness Start Highest point End Pass type
(mag) Time Alt. Az. Time Alt. Az. Time Alt. Az.
21 Feb - 16:00:14 10° SSW 16:07:42 18° SSE 16:13:27 10° ESE daylight
21 Feb - 18:08:36 10° SW 18:16:22 24° S 18:21:48 10° SE visible
21 Feb - 20:19:13 10° WSW 20:24:08 18° SSW 20:27:53 10° SSE visible
22 Feb - 14:13:50 10° SSE 14:16:26 11° SSE 14:18:52 10° SE daylight
22 Feb - 16:16:39 10° SSW 16:25:33 22° SSE 16:32:04 10° ESE daylight
22 Feb - 18:26:09 10° SW 18:34:10 26° S 18:39:41 10° SE visible
22 Feb - 20:37:26 10° WSW 20:41:44 16° SSW 20:45:09 10° SSE visible
23 Feb - 14:27:01 10° S 14:34:14 15° SSE 14:40:13 10° ESE daylight
23 Feb - 16:33:33 10° SW 16:43:25 26° S 16:50:20 10° ESE daylight
23 Feb - 18:43:54 10° WSW 18:51:56 27° S 18:57:26 10° SE visible
23 Feb - 20:55:59 10° WSW 20:59:16 14° SSW 21:02:01 10° S visible
24 Feb - 14:42:29 10° SSW 14:52:02 20° SSE 14:59:28 10° ESE daylight
24 Feb - 16:50:47 10° SW 17:01:16 29° S 17:08:24 10° ESE daylight
24 Feb - 19:01:47 10° WSW 19:09:39 26° SSW 19:15:04 10° SE visible
24 Feb - 21:15:44 10° SW 21:16:44 10° SW 21:17:40 10° SSW visible
25 Feb - 12:56:43 10° SSE 13:00:25 11° SE 13:03:52 10° SE daylight
25 Feb - 14:58:46 10° SSW 15:09:51 25° SSE 15:18:06 10° ESE daylight
25 Feb - 17:08:16 10° SW 17:19:06 32° S 17:26:20 10° ESE daylight
25 Feb - 19:19:49 10° WSW 19:27:17 24° SSW 19:32:32 10° SSE visible
26 Feb - 13:09:44 10° S 13:18:07 16° SSE 13:25:19 10° ESE daylight
26 Feb - 15:15:33 10° SW 15:27:42 29° SSE 15:36:26 10° ESE daylight
26 Feb - 17:25:56 10° WSW 17:36:54 33° S 17:44:09 10° SE daylight
26 Feb - 19:38:02 10° WSW 19:44:52 21° SSW 19:49:49 10° SSE visible
27 Feb - 13:24:58 10° SSW 13:35:50 21° SSE 13:44:44 10° ESE daylight
27 Feb - 15:32:40 10° SW 15:45:31 33° S 15:54:33 10° ESE daylight
27 Feb - 17:43:45 10° WSW 17:54:39 33° S 18:01:51 10° SE daylight
27 Feb - 19:56:30 10° WSW 20:02:20 18° SSW 20:06:47 10° S visible
28 Feb - 11:41:55 10° SE 11:44:04 10° SE 11:46:11 10° SE daylight
28 Feb - 13:41:04 10° SSW 13:53:34 26° SSE 14:03:30 10° ESE daylight
28 Feb - 15:50:03 10° SW 16:03:22 36° S 16:12:31 10° ESE daylight
28 Feb - 18:01:43 10° WSW 18:12:21 31° SSW 18:19:26 10° SE visible
28 Feb - 20:15:25 10° WSW 20:19:43 14° SW 20:23:15 10° S visible
01 Mar - 11:53:16 10° S 12:01:37 15° SE 12:09:16 10° ESE daylight
01 Mar - 13:57:41 10° SSW 14:11:20 31° SSE 14:21:53 10° ESE daylight
01 Mar - 16:07:39 10° WSW 16:21:10 38° S 16:30:23 10° ESE daylight
01 Mar - 18:19:48 10° WSW 18:29:58 29° SSW 18:36:52 10° SE visible
01 Mar - 20:36:21 10° SW 20:37:00 10° SW 20:37:38 10° SW visible
02 Mar - 12:08:06 10° S 12:19:11 20° SSE 12:29:04 10° ESE daylight
02 Mar - 14:14:40 10° SW 14:29:07 35° SSE 14:40:04 10° ESE daylight
02 Mar - 16:25:24 10° WSW 16:38:58 39° S 16:48:09 10° ESE daylight
02 Mar - 18:38:02 10° WSW 18:47:30 26° SSW 18:54:07 10° SSE visible
